Theta_e
313 312 318 316 316 314 314 316 316 314 312 314 314 316 315 312 317 325 300 296 295 295 294 296 306 309 313 317 320 322 326 331 335 336 340 338 337 334 335 335 336 335 335 335 338 342 343 341 340
310 314 315 317 315 314 313 316 315 315 310 313 311 314 313 309 307 304 306 296 294 294 293 295 303 306 308 312 316 318 321 325 330 335 338 341 338 336 334 335 336 335 336 340 339 340 340 339 339
309 314 316 314 312 314 315 315 316 308 307 315 312 310 309 306 299 300 296 295 295 294 293 295 300 303 305 308 311 314 317 320 323 331 334 336 338 338 336 334 335 333 334 338 339 340 339 338 338
314 314 314 312 313 313 313 314 312 308 306 310 312 309 302 300 299 295 294 294 294 294 294 294 298 300 301 304 306 309 312 315 319 323 329 334 335 337 339 334 335 332 335 336 338 339 338 339 338
314 315 312 312 312 313 309 310 308 309 308 308 310 309 303 297 296 295 294 294 293 293 293 293 295 297 298 300 302 304 307 309 313 317 326 331 335 335 337 336 334 334 333 335 337 337 337 338 337
314 313 312 313 313 312 307 306 306 309 306 303 307 308 304 298 297 294 294 293 293 292 293 292 293 294 296 297 299 300 302 304 307 310 325 331 334 335 336 336 336 334 333 335 336 336 337 337 337
316 312 311 312 313 311 307 304 306 306 305 303 303 309 302 299 295 294 294 293 293 292 292 292 292 293 293 294 296 298 298 297 301 304 312 330 333 335 335 336 335 335 334 334 335 336 338 336 336
313 313 312 312 312 313 305 303 304 305 304 299 300 305 303 298 294 294 294 294 293 292 291 291 291 292 292 293 294 296 296 296 296 298 303 316 329 333 335 336 337 336 334 333 335 335 337 335 335
309 310 310 312 311 311 302 303 300 298 299 300 298 300 297 294 294 295 295 294 293 292 291 290 290 291 291 292 292 293 294 295 294 295 298 304 312 325 331 333 335 337 335 333 333 332 336 334 333
309 308 310 305 305 307 301 303 300 299 299 298 297 295 294 294 294 294 294 293 292 291 290 290 289 290 290 290 291 292 293 294 294 295 295 297 301 309 324 330 333 336 336 337 331 334 335 333 335
306 308 303 299 300 302 301 300 300 300 300 300 299 297 295 294 294 294 293 292 291 290 290 289 289 289 289 289 290 291 292 292 293 295 294 295 297 301 308 325 331 333 335 336 336 335 334 333 334
301 298 299 299 296 298 299 299 297 298 299 298 298 296 295 294 294 293 292 291 290 290 289 288 288 288 288 288 289 289 290 291 293 293 294 295 296 297 300 310 325 330 337 337 337 336 333 334 334
300 297 297 295 294 295 295 296 297 296 296 295 295 294 294 294 293 292 290 290 290 289 288 288 287 287 287 287 287 288 289 290 291 292 293 294 295 296 297 300 312 325 331 337 337 335 335 334 335
297 296 295 294 293 292 294 295 292 296 296 294 294 294 294 294 293 292 291 290 289 288 288 287 286 286 286 286 287 287 288 289 290 291 292 293 294 295 296 297 301 315 326 332 336 335 335 334 335
295 295 294 294 293 294 292 293 293 295 294 294 294 294 294 294 293 292 290 289 288 288 287 286 286 286 286 285 286 286 287 288 289 290 291 292 293 294 295 296 296 301 316 328 333 335 334 334 335
296 297 298 295 293 293 292 301 296 294 294 294 293 293 293 294 293 292 289 288 288 287 287 286 286 285 285 285 285 285 287 288 289 290 291 292 293 294 295 296 298 299 304 314 326 334 335 332 333
296 301 300 294 293 293 293 300 295 294 293 294 293 293 293 294 293 292 289 288 287 287 286 286 285 285 285 284 284 285 286 287 288 289 290 291 292 293 294 294 295 295 298 307 317 332 333 332 332
306 298 298 299 293 292 294 295 295 293 293 293 293 293 293 294 293 292 289 287 287 286 286 285 285 285 284 284 284 285 286 287 288 288 289 289 290 291 292 293 294 295 296 299 307 320 333 333 331
297 300 300 294 290 291 295 296 298 294 293 293 293 294 294 294 293 292 289 287 287 287 285 285 284 284 284 283 283 284 284 285 286 287 288 288 288 289 291 292 293 294 295 295 301 311 332 332 331
294 297 300 294 290 290 295 296 297 296 296 295 295 294 294 294 293 291 289 288 288 286 285 284 283 283 283 282 282 283 283 285 285 286 287 288 288 289 290 292 293 294 296 298 298 301 313 331 331
295 297 297 294 292 293 292 299 297 295 293 295 294 296 294 294 293 292 291 289 287 285 284 283 283 282 282 281 282 282 283 284 286 286 287 287 288 288 289 290 291 292 294 295 297 300 309 330 330
295 290 290 292 295 303 294 309 303 295 293 292 292 294 294 293 292 292 291 288 287 284 282 282 282 281 281 281 281 281 282 284 284 284 285 285 286 286 287 288 289 290 292 293 295 297 303 323 329
292 289 290 291 295 294 296 300 306 292 294 293 295 296 295 293 291 291 290 287 285 283 281 281 280 281 280 280 280 280 281 283 283 283 284 284 285 285 286 287 288 289 291 293 294 295 298 306 328
288 289 290 291 295 301 299 299 309 297 299 295 296 295 293 291 290 289 288 287 285 283 282 281 280 280 279 279 279 280 280 281 282 282 283 283 284 284 285 286 287 289 292 293 294 296 298 301 319
289 294 308 310 303 309 291 294 305 298 297 297 296 295 292 290 289 288 288 287 286 284 282 280 280 278 278 278 278 279 279 281 281 282 282 282 283 283 284 285 286 288 290 293 295 296 299 303 307
292 294 303 311 313 304 291 300 305 296 292 291 291 290 289 289 289 288 288 286 285 284 282 280 278 277 277 277 277 278 279 280 281 281 281 282 282 282 283 284 285 286 288 292 293 295 298 301 306
290 293 288 297 290 297 304 303 299 292 291 290 290 291 292 290 289 288 287 286 284 283 281 278 277 276 276 276 276 277 278 279 280 281 281 281 281 282 282 283 283 285 286 289 291 293 296 300 305
288 286 297 295 305 309 308 304 306 295 294 293 293 293 293 290 289 288 286 285 284 281 279 277 276 277 276 276 276 276 277 279 280 280 281 281 281 282 282 283 284 285 287 289 292 294 297 300 303
287 292 288 289 294 305 309 309 306 302 298 297 296 295 293 290 289 288 287 285 282 280 279 277 277 276 276 276 276 276 276 278 279 280 280 281 281 282 283 284 285 286 287 289 291 294 298 301 304
286 295 294 300 300 294 293 300 298 296 296 295 297 294 290 289 289 287 285 284 282 280 279 277 277 276 276 275 275 276 276 278 279 280 280 280 281 282 282 283 285 286 288 289 293 296 300 303 304
Wind_Speed
10 5 3 6 5 6 11 6 2 7 4 3 5 3 10 14 6 2 10 11 12 13 16 19 25 26 27 27 28 27 25 19 12 7 6 4 5 4 3 3 4 4 3 2 4 10 11 11 12
4 2 5 2 6 11 11 11 10 8 8 7 5 4 7 6 10 6 7 13 13 13 15 18 23 24 25 25 25 25 24 21 14 8 6 4 5 6 6 5 5 5 5 4 5 10 11 11 11
1 3 4 5 8 13 10 10 12 9 6 8 5 9 4 4 7 5 6 9 11 13 14 16 20 22 23 23 24 25 24 22 19 9 5 3 2 7 8 8 7 7 6 6 7 10 11 11 11
4 5 4 6 13 11 5 7 14 12 5 5 7 8 6 6 5 3 6 8 10 12 13 15 18 21 21 21 23 23 23 22 18 13 9 1 4 6 9 11 9 9 9 7 8 10 12 12 11
5 4 9 9 17 4 3 9 10 13 9 9 6 8 7 7 7 5 6 8 11 12 14 14 18 19 20 20 21 23 22 22 20 17 8 5 5 7 8 10 11 12 10 10 10 11 12 13 12
5 4 8 16 17 7 6 8 9 9 7 6 5 11 6 11 5 5 6 8 10 12 14 15 16 18 19 19 21 22 22 21 19 18 12 7 7 8 7 9 10 11 11 11 11 13 13 14 14
9 8 15 16 13 8 9 9 10 10 9 5 2 8 8 8 4 4 5 7 9 12 13 16 18 20 20 18 20 22 20 20 19 15 15 8 9 8 8 9 9 11 12 13 13 15 16 16 15
4 4 15 15 12 8 10 11 4 9 8 6 3 6 6 10 3 4 4 7 8 11 13 16 18 20 20 19 19 21 20 20 18 17 14 11 7 9 8 6 10 9 13 14 15 16 17 17 16
1 6 11 17 15 4 11 9 6 3 9 4 3 7 10 7 3 4 4 6 7 10 12 14 17 18 20 19 21 20 20 20 19 18 16 13 11 8 9 12 10 8 12 14 17 17 19 16 15
8 11 14 6 7 4 10 11 11 8 11 6 10 10 8 6 4 4 5 7 9 12 13 15 16 18 19 18 20 19 19 18 18 18 17 16 15 12 9 10 14 12 12 13 17 19 20 17 14
4 7 4 5 5 5 10 8 7 7 10 10 14 11 8 5 4 3 4 6 8 10 12 15 16 17 17 19 18 17 19 19 18 17 19 18 16 15 12 10 11 11 11 15 16 19 22 18 17
5 1 1 5 4 5 9 8 7 8 6 10 9 10 8 6 4 2 3 3 6 8 10 13 15 17 16 18 16 17 18 19 16 19 17 17 18 18 15 12 12 15 10 15 16 22 24 22 22
7 5 4 5 5 4 3 7 3 9 10 10 10 9 7 5 4 4 2 2 4 7 9 13 15 15 17 17 16 16 16 16 18 17 16 16 17 17 18 16 14 15 18 16 24 27 27 27 24
3 7 8 5 4 3 4 5 2 10 13 11 11 10 8 6 5 4 2 1 4 6 9 12 13 14 16 16 16 17 16 17 17 16 16 18 16 17 18 21 19 19 19 19 24 32 33 31 29
11 7 6 7 5 2 1 7 9 8 13 12 11 8 7 6 6 4 2 2 4 7 9 12 13 14 15 15 16 16 16 17 18 17 17 17 17 17 18 22 26 24 21 21 22 31 30 31 32
5 5 6 9 7 5 3 4 11 11 13 12 10 8 7 7 6 5 3 1 3 6 9 11 13 15 16 16 16 16 16 18 18 18 17 17 18 18 19 20 22 26 25 25 19 28 33 30 31
7 6 12 6 6 3 9 2 7 10 11 11 9 9 7 7 7 7 6 3 2 5 8 11 13 14 15 15 16 16 16 17 18 18 18 18 18 19 20 21 23 28 31 29 25 29 32 34 36
4 7 3 7 6 7 10 15 6 11 12 13 10 8 10 8 8 8 8 4 3 5 8 11 12 14 15 15 16 16 17 17 17 18 19 20 20 20 22 23 23 24 30 35 31 22 32 30 33
1 1 3 2 3 3 14 16 13 15 15 16 14 15 11 8 7 9 9 6 5 6 10 11 13 15 15 16 18 18 19 21 20 19 19 21 21 21 22 25 25 24 26 33 39 27 27 34 31
1 3 5 2 1 3 10 17 16 16 18 16 13 12 12 8 7 10 10 7 5 7 9 11 13 14 14 15 17 20 22 23 22 22 20 20 21 22 23 25 26 25 25 26 31 35 25 35 35
1 3 3 4 5 11 10 11 9 6 5 5 11 9 7 7 6 5 11 8 4 6 8 10 12 14 14 16 18 20 22 23 22 20 19 19 20 22 23 24 28 29 28 30 32 30 30 31 37
7 3 0 4 4 4 1 6 5 6 7 10 13 12 9 8 7 6 5 4 4 7 8 10 12 13 14 16 17 20 23 24 23 25 24 25 24 25 26 28 30 32 30 32 33 36 38 27 36
3 1 2 1 3 4 7 5 3 6 7 11 12 10 7 6 5 5 5 3 6 10 9 10 13 12 14 15 16 19 22 24 25 26 29 29 29 27 28 29 32 34 33 34 32 37 38 30 40
2 3 4 2 3 4 6 4 5 5 4 13 10 8 7 5 4 5 5 7 9 7 8 9 11 13 14 14 16 19 22 25 27 27 30 30 30 29 29 29 31 34 35 35 36 33 40 48 35
2 3 3 4 4 3 2 4 8 2 2 12 11 8 6 4 5 5 6 8 8 7 6 9 10 16 15 17 17 18 21 24 28 28 28 30 30 29 30 29 31 34 35 36 35 37 34 41 38
1 2 3 5 3 3 3 6 1 3 5 6 4 3 4 6 5 6 8 9 8 8 7 9 12 17 18 19 20 20 21 24 27 28 31 32 32 33 33 33 33 36 37 34 33 36 40 41 46
4 3 2 5 2 4 3 5 6 7 5 6 6 7 6 5 4 6 8 10 9 8 8 11 16 18 19 19 23 24 23 24 27 30 32 34 35 35 36 37 39 39 38 38 35 38 42 38 47
2 2 2 3 4 5 5 4 5 8 12 10 9 8 5 5 5 6 7 9 8 7 9 11 14 16 18 20 23 24 27 27 29 30 33 34 35 35 37 38 39 40 37 37 36 35 40 39 42
4 3 1 2 3 4 4 1 1 5 11 12 9 7 5 5 6 5 6 7 6 6 9 11 13 15 19 20 24 27 29 29 29 30 32 32 33 34 36 38 38 39 38 38 37 38 34 42 48
3 2 6 4 4 1 3 7 3 4 5 3 5 5 3 5 6 5 7 7 7 7 7 11 13 14 17 21 24 28 28 28 29 30 31 32 32 33 36 38 38 39 39 39 40 39 42 35 48
Wind_Direction
333 290 220 213 216 227 232 191 75 151 114 48 47 322 77 34 9 62 120 24 5 2 0 8 8 9 12 15 17 21 25 28 32 47 22 255 241 237 214 215 202 193 200 187 178 156 145 140 128
310 276 216 222 243 216 233 183 183 137 96 137 80 70 31 82 59 86 163 5 2 7 1 8 9 8 14 13 16 19 21 25 25 32 22 18 247 240 253 232 227 222 238 237 178 167 155 148 138
273 212 221 215 232 239 238 166 144 125 127 169 110 39 53 88 46 73 20 0 4 6 5 6 8 9 12 13 12 16 17 17 20 30 11 331 290 264 253 247 237 243 240 232 194 175 165 150 138
188 199 241 240 230 233 341 141 135 146 122 158 117 89 91 11 92 71 8 6 11 4 4 4 8 11 10 13 11 11 14 15 12 10 13 302 254 239 249 248 247 249 252 220 206 180 167 161 146
208 247 231 233 238 114 123 121 165 169 135 152 186 134 102 103 99 57 20 11 12 3 3 5 7 9 8 12 9 7 12 11 9 5 347 307 247 249 237 245 248 248 246 235 206 196 180 167 152
204 251 228 229 228 133 155 160 168 168 143 130 167 124 101 132 91 42 29 21 14 8 5 2 7 5 8 8 7 6 5 9 7 7 344 302 263 243 253 243 252 246 242 232 221 208 192 176 169
244 217 242 248 245 161 179 165 182 170 162 130 98 147 126 135 70 41 35 28 23 15 10 6 5 3 4 7 4 0 5 4 4 3 4 310 274 266 254 245 244 258 241 236 226 220 201 193 184
269 260 246 240 246 225 129 164 144 163 141 102 314 176 162 116 71 52 52 36 28 23 16 11 6 2 1 0 359 359 360 358 357 359 356 352 305 258 255 265 259 239 251 235 229 224 213 204 192
258 238 240 229 234 174 142 164 150 82 130 132 80 64 93 109 94 64 55 42 28 23 21 14 8 2 359 357 352 357 355 355 354 348 346 342 340 320 263 250 245 250 239 246 233 232 216 209 198
219 228 241 25 60 145 169 190 156 169 150 143 130 119 125 125 98 71 44 29 19 15 14 12 8 3 0 356 350 351 351 351 348 346 340 335 331 324 303 267 247 248 239 243 236 231 213 207 189
185 249 94 60 67 123 158 182 167 194 195 178 178 156 147 136 114 87 60 39 20 11 7 5 4 1 359 353 349 346 345 343 342 340 339 329 322 318 312 284 255 237 263 245 235 222 213 204 199
218 357 18 122 97 133 170 145 193 208 77 112 124 141 151 153 147 112 76 44 22 11 4 0 359 357 355 351 347 340 337 334 333 330 332 331 322 312 310 295 268 238 236 230 226 216 214 209 205
220 137 102 111 132 126 139 191 224 207 142 141 142 156 162 164 154 146 130 65 21 9 1 358 355 355 350 347 341 337 332 328 324 324 322 325 318 311 305 296 275 259 249 252 218 215 212 217 208
116 147 133 150 129 104 226 183 210 196 159 168 174 175 171 173 175 173 160 32 14 3 359 355 354 350 346 340 336 332 329 323 320 316 313 313 310 306 302 292 283 262 250 244 238 221 205 215 213
135 134 161 179 159 148 323 230 226 152 172 184 186 184 181 187 186 197 164 3 359 357 351 351 348 344 342 336 332 327 323 319 315 311 308 304 302 301 298 292 282 275 262 254 247 231 209 196 215
200 199 202 148 175 138 218 233 171 161 179 187 192 190 193 196 198 190 190 265 336 340 343 343 343 341 337 332 328 324 321 318 312 308 303 299 298 296 296 292 289 277 269 260 265 226 200 197 218
198 259 214 157 201 158 210 242 154 179 197 193 200 205 194 198 190 194 194 221 298 326 331 337 338 337 334 329 326 320 317 313 308 305 303 299 294 290 290 289 288 281 274 264 263 238 212 201 196
250 229 241 236 153 221 223 246 186 196 205 211 209 206 207 198 203 193 193 217 263 312 329 333 337 334 332 332 323 318 313 306 299 295 293 294 293 290 287 286 284 283 279 269 265 280 205 196 185
345 203 260 81 97 279 240 251 246 195 213 217 224 225 210 200 185 185 196 214 257 306 335 339 335 331 334 332 325 317 308 301 297 292 288 287 286 285 283 282 279 278 276 276 266 274 213 194 191
336 307 272 118 86 298 292 279 261 231 220 211 216 221 202 188 184 191 211 221 267 317 338 336 329 326 332 325 313 301 296 293 290 290 288 288 287 284 280 277 276 276 275 274 272 267 282 192 184
174 283 278 290 307 249 290 263 214 204 264 217 199 214 204 203 220 217 168 217 262 313 341 322 319 324 328 316 304 298 296 295 297 295 293 288 284 282 280 274 273 273 271 271 268 266 264 203 187
271 68 46 310 326 282 335 292 199 169 194 205 198 195 201 206 213 231 218 199 255 305 315 310 318 324 321 305 298 295 296 296 298 301 298 292 286 281 277 274 269 268 267 266 266 264 262 246 189
33 331 317 284 262 315 181 241 217 163 198 181 182 180 188 201 217 248 257 214 276 293 298 308 316 314 300 293 294 296 298 300 301 299 294 292 288 283 278 273 270 267 264 262 261 266 261 271 190
97 263 238 236 240 241 139 238 243 176 197 162 171 167 171 191 225 239 255 260 266 271 290 305 307 296 291 291 295 296 298 301 298 296 294 290 287 282 276 271 268 266 264 259 258 257 258 261 244
234 263 238 209 195 272 105 212 287 140 114 155 158 163 168 198 238 254 253 258 262 265 279 294 291 292 294 298 298 300 299 297 290 289 286 285 283 279 275 272 268 264 262 259 257 259 261 258 274
125 315 305 298 311 24 160 232 215 99 123 113 117 150 209 231 229 244 246 259 262 267 275 285 289 295 299 306 308 305 300 292 288 287 285 281 277 275 274 271 267 265 262 262 259 257 256 250 257
131 200 12 296 171 255 239 246 192 168 199 201 199 209 221 217 227 247 251 255 265 262 272 288 298 298 304 311 310 305 296 293 291 287 282 277 275 272 271 267 263 262 261 258 258 256 265 261 252
325 61 196 201 270 251 203 274 255 180 192 190 197 202 211 221 238 247 250 254 252 257 275 288 295 290 306 310 309 302 301 298 294 290 283 277 274 272 269 266 261 259 258 257 253 247 250 255 249
145 192 207 314 260 284 299 229 319 189 181 184 186 183 191 243 252 245 253 253 247 252 277 294 295 299 309 313 314 313 306 303 299 292 288 283 281 275 269 264 260 257 254 252 252 255 256 257 251
346 277 184 241 164 225 290 271 51 18 39 54 154 166 215 267 256 255 252 246 240 249 268 288 296 300 307 316 318 315 309 306 302 299 296 294 286 278 269 262 258 255 252 253 242 235 237 250 248